User: anonymous   Login
Location: Unspecified
(0.0000°N, 0.0000°E)
Time: 20:03:23
(UTC+00:00)
Language:

TECHNOSAT - Orbit

View from above orbital plane
View from above orbital plane
View from above satellite
View from above satellite

Ground track
Ground track

The orbit data is extracted from the following two-line orbital elements,

1 42829U 17042E   19341.48247918  .00000079  00000-0  13358-4 0  9990
2 42829  97.5429 227.0016 0013488 202.4407 157.6224 14.91031524130533
Epoch (UTC): 07 December 2019 11:34:46
Eccentricity: 0.0013488
inclination: 97.5429°
perigee height: 585 km
apogee height: 604 km
right ascension of ascending node: 227.0016°
argument of perigee: 202.4407°
revolutions per day: 14.91031524
mean anomaly at epoch: 157.6224°
orbit number at epoch: 13053

The dashed part of the orbit path shows where the satellite is in the earth's shadow,  

DLR